EW4324 Weather Reports


time (UTC)temp
C
wind
direction
speed
KPH
gust
KPH
rain 1hr
cm
rain 24hr
cm
rain mn
cm
humidity
%
barometer
mb
20260502213603 10 225 1.6 4.8 0.03 0.05 0.03 85 1010.0
20260502212703 10 225 1.6 4.8 0.03 0.05 0.03 88 1009.9
20260502212014 10 225 1.6 6.4 0.03 0.05 0.03 90 1010.0
20260502210903 10 223 1.6 4.8 0.00 0.03 0.00 92 1009.9
20260502210004 9 223 1.6 4.8 0.00 0.03 0.00 92 1010.0
20260502205403 8 221 0.0 4.8 0.00 0.03 0.00 92 1010.1
20260502204503 8 221 0.0 4.8 0.00 0.03 0.00 92 1010.2
20260502203603 8 221 1.6 6.4 0.00 0.03 0.00 90 1010.3
20260502202703 8 230 3.2 11.3 0.00 0.03 0.00 89 1010.4
20260502201803 8 205 3.2 9.7 0.00 0.03 0.00 87 1010.5
20260502200903 9 225 3.2 8.0 0.00 0.03 0.00 86 1010.6
20260502200003 9 276 1.6 4.8 0.00 0.03 0.00 85 1010.4
20260502195403 9 275 1.6 4.8 0.00 0.03 0.00 86 1010.3
20260502194506 9 275 0.0 3.2 0.00 0.03 0.00 87 1010.3
20260502193603 9 275 0.0 4.8 0.00 0.03 0.00 87 1010.3
20260502192703 8 275 1.6 6.4 0.00 0.03 0.00 89 1010.4
20260502192013 8 276 1.6 6.4 0.00 0.03 0.00 89 1010.4
20260502190903 8 262 1.6 8.0 0.00 0.03 0.00 88 1010.7
20260502190004 8 255 3.2 9.7 0.00 0.03 0.00 87 1010.6
20260502185403 9 260 3.2 14.5 0.00 0.03 0.00 86 1010.7
20260502184509 9 260 6.4 16.1 0.00 0.03 0.00 84 1010.6
20260502183603 10 222 4.8 16.1 0.00 0.03 0.00 79 1010.5
20260502182703 11 148 3.2 11.3 0.00 0.03 0.00 75 1010.5
20260502181803 11 173 4.8 11.3 0.00 0.03 0.00 71 1010.5
20260502180903 12 163 4.8 11.3 0.00 0.03 0.00 70 1010.5
20260502163603 10 126 1.6 6.4 0.00 0.03 0.00 87 1011.2
20260502162703 10 123 1.6 4.8 0.00 0.03 0.00 87 1011.3
20260502161803 10 124 1.6 4.8 0.00 0.03 0.00 88 1011.4
20260502160903 9 124 1.6 11.3 0.00 0.03 0.00 88 1011.4
20260502151803 9 137 0.0 6.4 0.00 0.03 0.00 88 1011.8
20260502151113 9 138 1.6 4.8 0.00 0.03 0.00 88 1011.7
20260502130213 7 0 0.0 0.0 0.00 0.05 0.00 95 1012.3
20260502123603 7 31 0.0 3.2 0.00 0.05 0.00 95 1012.5
20260502122703 7 31 0.0 4.8 0.00 0.05 0.00 95 1012.6
20260502121803 6 33 1.6 6.4 0.00 0.05 0.00 95 1012.6
20260502120903 6 36 0.0 3.2 0.00 0.05 0.00 94 1012.6
20260502115408 6 0 0.0 0.0 0.00 0.05 0.00 94 1012.5
20260502114714 6 36 0.0 1.6 0.00 0.05 0.00 94 1012.4
20260502113603 6 36 0.0 3.2 0.00 0.05 0.00 94 1012.2
20260502112913 6 36 0.0 3.2 0.00 0.05 0.00 94 1012.1
20260502111803 6 36 0.0 3.2 0.00 0.05 0.00 93 1012.7
20260502110904 6 36 0.0 3.2 0.00 0.05 0.00 93 1012.8
20260502110213 6 36 0.0 3.2 0.00 0.05 0.00 92 1012.7
20260502105403 6 36 0.0 1.6 0.00 0.05 0.00 92 1012.1
20260502104503 6 36 0.0 3.2 0.00 0.05 0.00 92 1011.8
20260502103603 6 43 0.0 4.8 0.00 0.05 0.00 91 1011.6
20260502102703 6 0 0.0 0.0 0.00 0.05 0.00 91 1011.5
20260502101803 6 0 0.0 0.0 0.00 0.05 0.00 90 1011.3
20260502100903 6 0 0.0 0.0 0.00 0.05 0.00 90 1011.5
20260502090903 6 0 0.0 0.0 0.00 0.05 0.00 88 1011.5
20260502090214 6 92 0.0 1.6 0.00 0.05 0.00 88 1011.2
20260502070903 7 326 0.0 4.8 0.00 0.05 0.00 71 1011.1
20260502070213 8 0 0.0 0.0 0.00 0.05 0.00 72 1011.4
20260502065403 7 325 0.0 1.6 0.00 0.05 0.00 69 1011.4
20260502064503 7 0 0.0 0.0 0.00 0.05 0.00 71 1011.4
20260502063607 7 325 0.0 1.6 0.00 0.05 0.00 71 1011.6
20260502062703 7 324 1.6 12.9 0.00 0.05 0.00 71 1011.6
20260502060903 7 251 0.0 4.8 0.00 0.05 0.00 74 1011.8
20260502060003 6 251 1.6 4.8 0.00 0.05 0.00 75 1011.9
20260502055403 6 251 0.0 4.8 0.00 0.05 0.00 75 1011.7
20260502054503 6 0 0.0 0.0 0.00 0.05 0.00 74 1011.3
20260502053813 7 251 0.0 1.6 0.00 0.05 0.00 72 1011.3
20260502052703 7 251 0.0 3.2 0.00 0.05 0.00 70 1011.6
20260502051803 7 251 0.0 3.2 0.00 0.05 0.00 70 1011.7
20260502050903 7 0 0.0 0.0 0.00 0.05 0.00 64 1011.6
20260502050212 7 0 0.0 0.0 0.00 0.05 0.00 61 1011.6
20260502045403 8 0 0.0 0.0 0.00 0.05 0.00 61 1011.6
20260502044713 8 0 0.0 0.0 0.00 0.05 0.00 61 1011.7
20260502043603 8 0 0.0 0.0 0.00 0.05 0.00 61 1011.7
20260502042703 8 251 0.0 1.6 0.00 0.05 0.00 62 1011.7
20260502041803 8 0 0.0 0.0 0.00 0.05 0.00 63 1011.7
20260502040903 7 0 0.0 0.0 0.00 0.05 0.00 64 1011.9
20260502040003 7 251 0.0 1.6 0.00 0.05 0.00 64 1012.0
20260502035613 7 251 0.0 1.6 0.00 0.05 0.05 64 1012.0
20260502034503 7 0 0.0 0.0 0.00 0.05 0.05 66 1012.0
20260502033603 7 0 0.0 0.0 0.00 0.05 0.05 67 1011.9
20260502032703 7 0 0.0 0.0 0.00 0.05 0.05 63 1011.9
20260502031803 7 0 0.0 0.0 0.00 0.05 0.05 61 1011.8
20260502031112 7 0 0.0 0.0 0.00 0.05 0.05 62 1011.7
20260502030214 7 0 0.0 0.0 0.03 0.05 0.05 64 1011.7
20260502025613 7 0 0.0 0.0 0.03 0.05 0.05 66 1011.7
20260502024503 7 0 0.0 0.0 0.03 0.05 0.05 66 1011.7
20260502023603 7 0 0.0 0.0 0.03 0.05 0.05 65 1011.7
20260502022703 7 0 0.0 0.0 0.03 0.05 0.05 64 1011.7
20260502021803 7 0 0.0 0.0 0.03 0.05 0.05 60 1011.6
20260502020904 7 0 0.0 0.0 0.03 0.05 0.05 58 1011.6
20260502020213 8 0 0.0 0.0 0.00 0.03 0.03 58 1011.6
20260502015403 8 0 0.0 0.0 0.00 0.03 0.03 56 1011.6
20260502014712 8 0 0.0 0.0 0.00 0.03 0.03 57 1011.6
20260502013603 8 0 0.0 0.0 0.00 0.03 0.03 54 1011.6
20260502012703 9 0 0.0 0.0 0.00 0.03 0.03 53 1011.6
20260502011803 10 251 0.0 1.6 0.00 0.03 0.03 53 1011.4
20260502010903 10 0 0.0 0.0 0.00 0.03 0.03 51 1011.3
20260502010003 10 251 0.0 1.6 0.00 0.03 0.03 52 1011.3
20260502005403 10 251 0.0 3.2 0.00 0.05 0.03 51 1011.2
20260502004503 10 251 0.0 1.6 0.00 0.05 0.03 51 1011.1
20260502003610 10 251 0.0 1.6 0.00 0.05 0.03 49 1011.2
20260502002703 11 251 0.0 3.2 0.00 0.05 0.03 49 1011.0
20260502001803 11 251 0.0 3.2 0.00 0.05 0.03 49 1010.9
20260502000903 12 0 0.0 0.0 0.00 0.05 0.03 47 1010.7
20260502000003 12 0 0.0 0.0 0.00 0.05 0.03 44 1010.5
20260501235403 12 0 0.0 0.0 0.00 0.05 0.03 41 1010.4
20260501234503 13 251 0.0 1.6 0.00 0.05 0.03 42 1010.3
20260501233813 13 251 0.0 3.2 0.00 0.05 0.03 39 1010.3
20260501232912 13 251 0.0 3.2 0.00 0.05 0.03 40 1010.0
20260501231803 14 261 0.0 9.7 0.00 0.05 0.03 36 1009.9
20260501230903 14 242 1.6 6.4 0.00 0.05 0.03 37 1009.7
20260501230009 15 254 1.6 8.0 0.00 0.05 0.03 35 1009.6
20260501225403 15 296 3.2 14.5 0.00 0.05 0.03 35 1009.6
20260501224713 15 282 3.2 14.5 0.00 0.05 0.03 34 1009.7
20260501223603 15 245 4.8 9.7 0.00 0.05 0.03 35 1009.7
20260501222914 15 223 3.2 8.0 0.00 0.05 0.03 36 1009.6
20260501221805 15 225 3.2 12.9 0.00 0.05 0.03 34 1009.5
20260501220903 15 246 4.8 14.5 0.00 0.05 0.03 33 1009.4
20260501220003 15 241 4.8 22.5 0.00 0.05 0.03 35 1009.5
20260501215403 15 271 4.8 14.5 0.00 0.05 0.03 35 1009.4
20260501214713 16 300 4.8 14.5 0.00 0.05 0.03 33 1009.4